Voltar ao catálogo

STARLINK-34608

AtivoComunicaçõesVLEO
NORAD 64810·PAYLOAD·🇺🇸 United States

Lançado Jul 16, 2025 de Vandenberg Space Force Base

Loading…

Próximas Passagens (próximas 24 horas)

TLE

AtualizadoSource: CelesTrak SupGP

Época: Sep 15, 2026, 03:51 UTC

1 64810C 25150W   26258.16090278 -.00032581  00000+0 -27275-2 0  2581
2 64810  70.0027  16.6180 0003174 255.8298 355.5653 14.98389189    16

Acompanhe STARLINK-34608 em tempo real com AllMySat

Download on the App Store